Weather History for Summerville, SC

Change the Weather History Date:

Wednesday, January 1, 2014

  Actual Average (KCHS) Record (KCHS)
Temperature  
Mean Temperature 44 °F 48 °F  
Max Temperature 51 °F 59 °F 80 °F (1952)
Min Temperature 37 °F 38 °F 22 °F (2001)
Degree Days  
Heating Degree Days 21 17  
Month to date heating degree days 17  
Since 1 July heating degree days 755  
Cooling Degree Days 0 0  
Month to date cooling degree days 0  
Year to date cooling degree days 0  
Moisture  
Dew Point 42 °F    
Average Humidity 90    
Maximum Humidity 100    
Minimum Humidity 67    
Precipitation  
Precipitation 0.00 in 0.12 in 1.52 in (1987)
Month to date precipitation 0.12  
Year to date precipitation 0.12  
Sea Level Pressure  
Sea Level Pressure 30.31 in    
Wind  
Wind Speed 1 mph (NNE)    
Max Wind Speed 6 mph    
Max Gust Speed -    
Visibility 9 miles    
Events Rain    
T = Trace of Precipitation, MM = Missing Value Source: NWS Daily Summary

Daily Weather History Graph

Daily Weather History Graph

Search for Another Location

Airport:

Trip Planner

Search our weather history database for the weather conditions in past years. The results will help you decide how hot, cold, wet, or windy it might be!

Date:

Astronomy

Jan. 01, 2014 Rise Set
Actual Time 7:24 AM EST 5:25 PM EST
Civil Twilight 6:56 AM EST 5:52 PM EST
Nautical Twilight 6:26 AM EST 6:23 PM EST
Astronomical Twilight 5:56 AM EST 6:53 PM EST
Moon 7:16 AM EST (1/1) 6:04 PM EST (1/1)
Length of Visible Light 10h 55m
Length of Day
10h 01m
New Moon, 0% of the Moon is Illuminated
Jan 1
New Moon
Jan 7
First Quarter
Jan 15
Full
Jan 24
Last Quarter
Jan 30
New

Hourly Weather History & Observations

Time (EST) Temp. Windchill Dew Point Humidity Pressure Visibility Wind Dir Wind Speed Gust Speed Precip Events Conditions
2:35 AM 41.0 °F - 41.0 °F 100% 30.37 in 7.0 mi Calm Calm - N/A   Clear
2:55 AM 41.0 °F - 41.0 °F 100% 30.36 in 5.0 mi Calm Calm - N/A   Clear
3:15 AM 39.2 °F - 39.2 °F 100% 30.37 in 5.0 mi Calm Calm - N/A   Clear
3:35 AM 39.2 °F - 39.2 °F 100% 30.37 in 5.0 mi Calm Calm - N/A   Clear
3:55 AM 39.2 °F - 39.2 °F 100% 30.35 in 5.0 mi Calm Calm - N/A   Clear
4:15 AM 37.4 °F - 37.4 °F 100% 30.35 in 4.0 mi Calm Calm - N/A   Clear
4:35 AM 39.2 °F - 39.2 °F 100% 30.35 in 7.0 mi Calm Calm - N/A   Clear
4:55 AM 39.2 °F - 39.2 °F 100% 30.35 in 7.0 mi Calm Calm - N/A   Clear
5:15 AM 39.2 °F 37.0 °F 39.2 °F 100% 30.34 in 5.0 mi North 3.5 mph - N/A   Clear
5:35 AM 39.2 °F - 39.2 °F 100% 30.34 in 10.0 mi Calm Calm - N/A   Clear
5:55 AM 41.0 °F - 41.0 °F 100% 30.35 in 10.0 mi Calm Calm - N/A   Clear
6:15 AM 41.0 °F - 41.0 °F 100% 30.35 in 10.0 mi Calm Calm - N/A   Clear
6:35 AM 41.0 °F - 41.0 °F 100% 30.35 in 10.0 mi Calm Calm - N/A   Mostly Cloudy
6:55 AM 41.0 °F 39.0 °F 41.0 °F 100% 30.35 in 10.0 mi NNE 3.5 mph - N/A   Overcast
8:15 AM 42.8 °F - 41.0 °F 93% 30.37 in 10.0 mi Calm Calm - N/A   Overcast
8:35 AM 42.8 °F - 42.8 °F 100% 30.37 in 10.0 mi Calm Calm - N/A   Mostly Cloudy
8:55 AM 44.6 °F 43.1 °F 42.8 °F 93% 30.37 in 10.0 mi NNE 3.5 mph - N/A   Mostly Cloudy
9:15 AM 44.6 °F - 42.8 °F 93% 30.37 in 10.0 mi Calm Calm - N/A   Overcast
9:35 AM 44.6 °F 43.1 °F 42.8 °F 93% 30.37 in 10.0 mi NNE 3.5 mph - N/A   Mostly Cloudy
9:55 AM 46.4 °F - 42.8 °F 87% 30.37 in 10.0 mi Calm Calm - N/A   Mostly Cloudy
10:15 AM 46.4 °F - 42.8 °F 87% 30.37 in 10.0 mi Calm Calm - N/A Rain Light Rain
10:35 AM 48.2 °F - 44.6 °F 87% 30.37 in 10.0 mi Calm Calm - N/A Rain Light Rain
10:55 AM 50.0 °F - 42.8 °F 76% 30.36 in 10.0 mi NNE 3.5 mph - N/A   Mostly Cloudy
11:15 AM 51.8 °F - 42.8 °F 71% 30.34 in 10.0 mi NNE 5.8 mph - N/A   Scattered Clouds
11:35 AM 51.8 °F - 41.0 °F 67% 30.33 in 10.0 mi NNE 4.6 mph - N/A   Mostly Cloudy
11:55 AM 51.8 °F - 41.0 °F 67% 30.32 in 10.0 mi NNE 5.8 mph - N/A   Overcast
12:15 PM 51.8 °F - 41.0 °F 67% 30.32 in 10.0 mi NNE 3.5 mph - N/A   Overcast
12:35 PM 51.8 °F - 41.0 °F 67% 30.31 in 10.0 mi North 4.6 mph - N/A Rain Light Rain
12:55 PM 50.0 °F - 44.6 °F 82% 30.30 in 10.0 mi North 3.5 mph - N/A Rain Rain
1:15 PM 50.0 °F - 44.6 °F 82% 30.28 in 10.0 mi North 4.6 mph - N/A Rain Light Rain
1:35 PM 48.2 °F - 44.6 °F 87% 30.28 in 10.0 mi NNE 4.6 mph - N/A Rain Light Rain
1:55 PM 48.2 °F - 44.6 °F 87% 30.29 in 10.0 mi North 4.6 mph - N/A   Light Drizzle
2:15 PM 48.2 °F - 42.8 °F 82% 30.28 in 10.0 mi North 4.6 mph - N/A   Overcast
2:35 PM 48.2 °F - 44.6 °F 87% 30.27 in 10.0 mi North 4.6 mph - N/A   Overcast
2:55 PM 48.2 °F - 42.8 °F 82% 30.27 in 10.0 mi North 4.6 mph - N/A   Light Drizzle
3:15 PM 48.2 °F - 44.6 °F 87% 30.27 in 10.0 mi NNE 3.5 mph - N/A   Overcast
3:35 PM 48.2 °F - 42.8 °F 82% 30.27 in 10.0 mi Calm Calm - N/A   Overcast
3:55 PM 48.2 °F - 42.8 °F 82% 30.26 in 10.0 mi NNE 3.5 mph - N/A   Overcast
4:15 PM 48.2 °F - 42.8 °F 82% 30.26 in 10.0 mi NE 3.5 mph - N/A   Overcast
4:35 PM 48.2 °F - 42.8 °F 82% 30.25 in 10.0 mi Calm Calm - N/A Rain Rain
4:55 PM 46.4 °F 44.3 °F 42.8 °F 87% 30.26 in 10.0 mi North 4.6 mph - N/A   Light Drizzle
5:15 PM 46.4 °F 44.3 °F 42.8 °F 87% 30.25 in 10.0 mi NNE 4.6 mph - N/A Rain Light Rain
5:35 PM 44.6 °F 43.1 °F 42.8 °F 93% 30.25 in 10.0 mi NNE 3.5 mph - N/A Rain Light Rain
5:55 PM 44.6 °F - 44.6 °F 100% 30.25 in 10.0 mi Calm Calm - N/A Rain Light Rain
6:15 PM 44.6 °F - 44.6 °F 100% 30.25 in 10.0 mi Calm Calm - N/A   Drizzle
6:35 PM 44.6 °F - 44.6 °F 100% 30.25 in 10.0 mi Calm Calm - N/A Rain Rain
6:55 PM 44.6 °F - 44.6 °F 100% 30.25 in 7.0 mi Calm Calm - N/A Rain Light Rain
10:15 PM 44.6 °F - 44.6 °F 100% 30.19 in 10.0 mi Calm Calm - N/A   Overcast
11:15 PM 44.6 °F 43.1 °F 44.6 °F 100% 30.16 in 10.0 mi North 3.5 mph - N/A   Overcast